Location: B?ogocice
(50.2413°N, 20.2361°E)
Time: 23:46:51
(UTC+00:00)

USA 234 - Pass Details

Date: 15 June 2024
Orbit: 1100 x 1107 km, 123.0° (Epoch: 08 July)

Event Time Altitude Azimuth Distance (km) Brightness Sun altitude
Rises 01:36:43 0° 116° (ESE) 3,919 6.4 -6.7°
Reaches altitude 10° 01:39:11 10° 116° (ESE) 2,962 5.7 -6.4°
Maximum altitude 01:45:45 85° 29° (NNE) 1,114 3.4 -5.7°
Drops below altitude 10° 01:52:19 10° 302° (WNW) 2,967 5.4 -5.0°
Sets 01:54:48 0° 302° (WNW) 3,926 6.0 -4.7°
